Вернуться в каталог

FENGYUN 1C DEB

АктивенPO
NORAD 30469·DEBRIS·🇨🇳 China

Запущен May 10, 1999 с Taiyuan Satellite Launch Center

Loading…

Ближайшие Пролёты (ближайшие 24 часа)

TLE

СвежийSource: Space-Track

Эпоха: Sep 14, 2026, 00:14 UTC

1 30469U 99025AGG 26257.01027802  .00001272  00000-0  84071-3 0  9994
2 30469  98.4630  91.2590 0158815 120.4278  32.0170 13.97221019995496

Отслеживайте FENGYUN 1C DEB в реальном времени с AllMySat

Download on the App Store